• In Denmark
  • List of Countries
  • For 7 days
  • Water Temperature
  • Satellite Maps
  • Weather Map
  • Weather Widgets
  • user-avatar
    Login

    Hourly Weather Daulet

    Today, 21 August, Tuesday

    Time Temperature Precipitation Wind Pressure Humidity
    00:00 +27°C° 0 mm 4 mps 710 mmHg 44%
    01:00 +26°C° 0 mm 4 mps 710 mmHg 49%
    02:00 +25°C° 0 mm 4 mps 711 mmHg 54%
    03:00 +25°C° 0.3 mm 4 mps 711 mmHg 59%
    04:00 +24°C° 0.3 mm 3 mps 712 mmHg 64%
    05:00 +22°C° 0 mm 4 mps 712 mmHg 69%
    06:00 +22°C° 0.9 mm 3 mps 712 mmHg 72%
    07:00 +23°C° 0.9 mm 2 mps 713 mmHg 74%
    08:00 +23°C° 0.9 mm 2 mps 713 mmHg 76%
    09:00 +24°C° 0.1 mm 2 mps 713 mmHg 69%
    10:00 +25°C° 0.1 mm 2 mps 713 mmHg 61%
    11:00 +26°C° 0 mm 2 mps 714 mmHg 57%
    12:00 +26°C° 0.2 mm 2 mps 714 mmHg 54%
    13:00 +27°C° 0.2 mm 2 mps 714 mmHg 51%
    14:00 +27°C° 0.2 mm 3 mps 713 mmHg 49%
    15:00 +27°C° 0.2 mm 3 mps 713 mmHg 48%
    16:00 +27°C° 0.2 mm 3 mps 713 mmHg 48%
    17:00 +26°C° 0 mm 2 mps 714 mmHg 48%
    18:00 +25°C° 0.1 mm 2 mps 714 mmHg 50%
    19:00 +24°C° 0.1 mm 2 mps 714 mmHg 52%
    20:00 +23°C° 0.1 mm 1 mps 715 mmHg 54%
    21:00 +23°C° 0 mm 1 mps 715 mmHg 55%
    22:00 +22°C° 0 mm 1 mps 714 mmHg 57%
    23:00 +22°C° 0 mm 1 mps 714 mmHg 58%

    Tomorrow, 22 August, Wednesday

    Time Temperature Precipitation Wind Pressure Humidity
    00:00 +21°C° 0 mm 1 mps 714 mmHg 60%
    01:00 +21°C° 0 mm 1 mps 714 mmHg 61%
    02:00 +20°C° 0 mm 1 mps 714 mmHg 62%
    03:00 +20°C° 0 mm 1 mps 714 mmHg 62%
    04:00 +20°C° 0 mm 1 mps 713 mmHg 61%
    05:00 +19°C° 0 mm 1 mps 713 mmHg 61%
    06:00 +21°C° 0 mm 1 mps 714 mmHg 56%
    07:00 +22°C° 0 mm 1 mps 714 mmHg 51%
    08:00 +24°C° 0 mm 2 mps 714 mmHg 46%
    09:00 +25°C° 0 mm 2 mps 714 mmHg 43%
    10:00 +26°C° 0 mm 2 mps 714 mmHg 41%
    11:00 +27°C° 0 mm 2 mps 714 mmHg 39%
    12:00 +28°C° 0.1 mm 2 mps 713 mmHg 38%
    13:00 +28°C° 0.1 mm 2 mps 713 mmHg 37%
    14:00 +29°C° 0.1 mm 2 mps 713 mmHg 36%
    15:00 +29°C° 0.1 mm 3 mps 713 mmHg 36%
    16:00 +28°C° 0.1 mm 3 mps 713 mmHg 36%
    17:00 +28°C° 0.1 mm 3 mps 713 mmHg 36%
    18:00 +26°C° 0 mm 3 mps 713 mmHg 39%
    19:00 +25°C° 0 mm 2 mps 713 mmHg 42%
    20:00 +23°C° 0 mm 2 mps 714 mmHg 45%
    21:00 +21°C° 0 mm 2 mps 713 mmHg 45%
    22:00 +21°C° 0 mm 2 mps 713 mmHg 46%
    23:00 +20°C° 0 mm 2 mps 713 mmHg 46%

    Day after tomorrow, 23 August, Thursday

    Time Temperature Precipitation Wind Pressure Humidity
    00:00 +20°C° 0 mm 2 mps 713 mmHg 46%
    01:00 +21°C° 0 mm 1 mps 713 mmHg 47%
    02:00 +20°C° 0 mm 1 mps 712 mmHg 47%
    03:00 +20°C° 0 mm 1 mps 712 mmHg 48%
    04:00 +19°C° 0 mm 1 mps 712 mmHg 49%
    05:00 +19°C° 0 mm 1 mps 712 mmHg 50%
    06:00 +21°C° 0 mm 1 mps 712 mmHg 46%
    07:00 +23°C° 0 mm 1 mps 712 mmHg 42%
    08:00 +25°C° 0 mm 2 mps 713 mmHg 38%
    09:00 +26°C° 0 mm 2 mps 712 mmHg 35%
    10:00 +28°C° 0 mm 2 mps 712 mmHg 33%
    11:00 +29°C° 0 mm 3 mps 712 mmHg 31%
    12:00 +30°C° 0.1 mm 3 mps 712 mmHg 30%
    13:00 +30°C° 0.1 mm 2 mps 711 mmHg 29%
    14:00 +31°C° 0.1 mm 2 mps 711 mmHg 28%
    15:00 +31°C° 0.1 mm 2 mps 711 mmHg 28%
    16:00 +30°C° 0.1 mm 2 mps 711 mmHg 28%
    17:00 +30°C° 0.1 mm 2 mps 711 mmHg 29%
    18:00 +28°C° 0 mm 2 mps 711 mmHg 32%
    19:00 +26°C° 0 mm 2 mps 711 mmHg 36%
    20:00 +24°C° 0 mm 2 mps 711 mmHg 40%
    21:00 +23°C° 0 mm 2 mps 711 mmHg 41%
    22:00 +23°C° 0 mm 2 mps 711 mmHg 41%
    23:00 +21°C° 0 mm 2 mps 710 mmHg 42%

    24 August, Friday

    Time Temperature Precipitation Wind Pressure Humidity
    00:00 +21°C° 0 mm 2 mps 710 mmHg 43%
    01:00 +21°C° 0 mm 2 mps 710 mmHg 44%
    02:00 +20°C° 0 mm 2 mps 709 mmHg 45%
    03:00 +20°C° 0 mm 2 mps 709 mmHg 46%
    04:00 +20°C° 0 mm 2 mps 709 mmHg 48%
    05:00 +20°C° 0 mm 2 mps 709 mmHg 49%
    06:00 +23°C° 0 mm 2 mps 709 mmHg 45%
    07:00 +25°C° 0 mm 3 mps 710 mmHg 42%
    08:00 +27°C° 0 mm 3 mps 710 mmHg 39%
    09:00 +28°C° 0.1 mm 3 mps 710 mmHg 36%
    10:00 +29°C° 0.1 mm 3 mps 710 mmHg 34%
    11:00 +30°C° 0.1 mm 3 mps 709 mmHg 31%
    12:00 +31°C° 0.2 mm 2 mps 709 mmHg 30%
    13:00 +31°C° 0.2 mm 2 mps 709 mmHg 30%
    14:00 +32°C° 0.2 mm 2 mps 709 mmHg 29%
    15:00 +31°C° 0.2 mm 3 mps 709 mmHg 30%
    16:00 +31°C° 0.2 mm 3 mps 709 mmHg 30%
    17:00 +32°C° 0.2 mm 4 mps 709 mmHg 31%
    18:00 +29°C° 0.3 mm 4 mps 710 mmHg 33%
    19:00 +28°C° 0.3 mm 5 mps 710 mmHg 35%
    20:00 +27°C° 0.3 mm 5 mps 711 mmHg 36%
    21:00 +27°C° 0.3 mm 5 mps 711 mmHg 38%
    22:00 +26°C° 0.3 mm 5 mps 711 mmHg 40%
    23:00 +26°C° 0.3 mm 5 mps 711 mmHg 41%

    25 August, Saturday

    Time Temperature Precipitation Wind Pressure Humidity
    00:00 +25°C° 0.3 mm 4 mps 710 mmHg 42%
    01:00 +23°C° 0.3 mm 4 mps 710 mmHg 44%
    02:00 +24°C° 0.3 mm 3 mps 710 mmHg 45%
    03:00 +22°C° 0 mm 3 mps 710 mmHg 45%
    04:00 +23°C° 0 mm 2 mps 710 mmHg 44%
    05:00 +21°C° 0 mm 2 mps 710 mmHg 44%
    06:00 +24°C° 0 mm 2 mps 710 mmHg 41%
    07:00 +26°C° 0 mm 2 mps 710 mmHg 37%
    08:00 +28°C° 0 mm 2 mps 710 mmHg 33%
    09:00 +29°C° 0 mm 2 mps 710 mmHg 31%
    10:00 +30°C° 0 mm 2 mps 710 mmHg 29%
    11:00 +31°C° 0 mm 2 mps 710 mmHg 27%
    12:00 +31°C° 0 mm 2 mps 709 mmHg 26%
    13:00 +32°C° 0 mm 2 mps 709 mmHg 26%
    14:00 +32°C° 0 mm 2 mps 709 mmHg 25%
    15:00 +32°C° 0.1 mm 2 mps 709 mmHg 26%
    16:00 +32°C° 0.1 mm 2 mps 709 mmHg 27%
    17:00 +31°C° 0.1 mm 3 mps 709 mmHg 28%
    18:00 +29°C° 0.1 mm 2 mps 709 mmHg 32%
    19:00 +27°C° 0.1 mm 2 mps 709 mmHg 37%
    20:00 +25°C° 0.1 mm 2 mps 709 mmHg 41%
    21:00 +25°C° 0 mm 2 mps 708 mmHg 41%
    22:00 +24°C° 0 mm 2 mps 708 mmHg 41%
    23:00 +23°C° 0 mm 2 mps 708 mmHg 41%

    26 August, Sunday

    Time Temperature Precipitation Wind Pressure Humidity
    00:00 +23°C° 0 mm 2 mps 707 mmHg 41%
    01:00 +21°C° 0 mm 2 mps 707 mmHg 40%
    02:00 +21°C° 0 mm 2 mps 707 mmHg 40%
    03:00 +21°C° 0 mm 2 mps 707 mmHg 40%
    04:00 +20°C° 0 mm 2 mps 707 mmHg 40%
    05:00 +20°C° 0 mm 2 mps 707 mmHg 40%
    06:00 +21°C° 0 mm 3 mps 707 mmHg 38%
    07:00 +24°C° 0 mm 3 mps 707 mmHg 35%
    08:00 +25°C° 0 mm 3 mps 708 mmHg 33%
    09:00 +26°C° 0 mm 4 mps 708 mmHg 31%
    10:00 +27°C° 0 mm 4 mps 708 mmHg 30%
    11:00 +28°C° 0 mm 4 mps 708 mmHg 29%
    12:00 +28°C° 0 mm 4 mps 708 mmHg 29%
    13:00 +28°C° 0 mm 4 mps 708 mmHg 28%
    14:00 +28°C° 0 mm 4 mps 708 mmHg 28%
    15:00 +28°C° 0.1 mm 4 mps 709 mmHg 28%
    16:00 +27°C° 0.1 mm 4 mps 709 mmHg 29%
    17:00 +27°C° 0.1 mm 3 mps 710 mmHg 29%
    18:00 +25°C° 0.1 mm 3 mps 710 mmHg 32%
    19:00 +24°C° 0.1 mm 2 mps 711 mmHg 35%
    20:00 +21°C° 0.1 mm 2 mps 711 mmHg 37%
    21:00 +20°C° 0 mm 2 mps 711 mmHg 39%
    22:00 +20°C° 0 mm 2 mps 711 mmHg 40%
    23:00 +19°C° 0 mm 2 mps 711 mmHg 41%
    Show more